Time,TemperatureF,DewpointF,PressureIn,WindDirection,WindDirectionDegrees,WindSpeedMPH,WindSpeedGustMPH,Humidity,HourlyPrecipIn,Conditions,Clouds,dailyrainin,SoftwareType,DateUTC
2013-01-08 00:10:00,62.1,61.2,30.15,ENE,68,0.0,0.0,97,0.00,,,0.00,Wunderground v.1.13,2013-01-08 05:10:00,
2013-01-08 00:20:00,62.1,61.2,30.16,ESE,104,0.0,0.0,97,0.00,,,0.00,Wunderground v.1.13,2013-01-08 05:20:00,
2013-01-08 00:30:00,62.1,61.2,30.15,East,82,0.0,0.0,97,0.00,,,0.00,Wunderground v.1.13,2013-01-08 05:30:00,
2013-01-08 00:40:00,62.1,60.9,30.15,East,89,0.0,0.0,96,0.00,,,0.00,Wunderground v.1.13,2013-01-08 05:40:00,
2013-01-08 00:50:00,62.1,60.9,30.14,NE,56,0.0,0.0,96,0.00,,,0.00,Wunderground v.1.13,2013-01-08 05:50:00,
2013-01-08 01:00:00,62.1,61.2,30.14,ENE,68,0.0,2.0,97,0.00,,,0.00,Wunderground v.1.13,2013-01-08 06:00:00,
2013-01-08 01:10:00,62.1,61.2,30.14,ENE,72,0.0,0.0,97,0.00,,,0.00,Wunderground v.1.13,2013-01-08 06:10:00,
2013-01-08 01:20:00,62.1,61.2,30.14,ENE,71,0.0,0.0,97,0.00,,,0.00,Wunderground v.1.13,2013-01-08 06:20:00,
2013-01-08 01:30:00,62.0,61.1,30.14,ENE,76,0.0,0.0,97,0.00,,,0.00,Wunderground v.1.13,2013-01-08 06:30:00,
2013-01-08 01:40:00,62.0,61.1,30.14,ENE,73,0.0,0.0,97,0.00,,,0.00,Wunderground v.1.13,2013-01-08 06:40:00,
2013-01-08 01:50:00,62.0,61.1,30.14,ENE,73,0.0,0.0,97,0.00,,,0.00,Wunderground v.1.13,2013-01-08 06:50:00,
2013-01-08 02:00:00,62.1,61.2,30.13,ENE,73,0.0,0.0,97,0.00,,,0.00,Wunderground v.1.13,2013-01-08 07:00:00,
2013-01-08 02:10:00,62.1,61.2,30.13,NNE,24,0.0,0.0,97,0.00,,,0.00,Wunderground v.1.13,2013-01-08 07:10:00,
2013-01-08 02:20:00,62.1,61.2,30.13,NNE,24,0.0,0.0,97,0.00,,,0.00,Wunderground v.1.13,2013-01-08 07:20:00,
2013-01-08 02:30:00,62.1,61.2,30.13,NNE,24,0.0,0.0,97,0.00,,,0.00,Wunderground v.1.13,2013-01-08 07:30:00,
2013-01-08 02:40:00,62.1,61.2,30.13,NNE,24,0.0,0.0,97,0.00,,,0.00,Wunderground v.1.13,2013-01-08 07:40:00,
2013-01-08 02:50:00,62.1,61.2,30.13,NNE,24,0.0,0.0,97,0.00,,,0.00,Wunderground v.1.13,2013-01-08 07:50:00,
2013-01-08 03:00:00,62.1,61.2,30.13,NNE,24,0.0,0.0,97,0.00,,,0.00,Wunderground v.1.13,2013-01-08 08:00:00,
2013-01-08 03:10:00,62.0,61.1,30.13,NNE,24,0.0,0.0,97,0.00,,,0.00,Wunderground v.1.13,2013-01-08 08:10:00,
2013-01-08 03:20:00,61.8,60.9,30.13,NNE,24,0.0,0.0,97,0.00,,,0.00,Wunderground v.1.13,2013-01-08 08:20:00,
2013-01-08 03:30:00,61.6,60.7,30.13,NNE,24,0.0,0.0,97,0.00,,,0.00,Wunderground v.1.13,2013-01-08 08:30:00,
2013-01-08 03:40:00,61.3,60.4,30.13,NNE,24,0.0,0.0,97,0.00,,,0.00,Wunderground v.1.13,2013-01-08 08:40:00,
2013-01-08 03:50:00,61.3,60.7,30.13,NNE,24,0.0,0.0,98,0.00,,,0.00,Wunderground v.1.13,2013-01-08 08:50:00,
2013-01-08 04:00:00,61.0,60.4,30.13,NNE,24,0.0,0.0,98,0.00,,,0.00,Wunderground v.1.13,2013-01-08 09:00:00,
2013-01-08 04:10:00,60.9,60.3,30.13,NNE,24,0.0,0.0,98,0.00,,,0.00,Wunderground v.1.13,2013-01-08 09:10:00,
2013-01-08 04:20:00,60.9,60.3,30.12,NNE,24,0.0,0.0,98,0.00,,,0.00,Wunderground v.1.13,2013-01-08 09:20:00,
2013-01-08 04:30:00,60.9,60.6,30.12,NNE,24,0.0,0.0,99,0.00,,,0.00,Wunderground v.1.13,2013-01-08 09:30:00,
2013-01-08 04:40:00,60.9,60.6,30.12,NNE,28,0.0,0.0,99,0.00,,,0.00,Wunderground v.1.13,2013-01-08 09:40:00,
2013-01-08 04:50:00,60.9,60.6,30.12,NNE,28,0.0,0.0,99,0.00,,,0.00,Wunderground v.1.13,2013-01-08 09:50:00,
2013-01-08 05:00:00,60.9,60.6,30.13,NNE,28,0.0,0.0,99,0.00,,,0.00,Wunderground v.1.13,2013-01-08 10:00:00,
2013-01-08 05:10:00,61.0,60.7,30.13,NNE,28,0.0,0.0,99,0.00,,,0.00,Wunderground v.1.13,2013-01-08 10:10:00,
2013-01-08 05:20:00,61.3,61.0,30.12,NNE,28,0.0,0.0,99,0.00,,,0.00,Wunderground v.1.13,2013-01-08 10:20:00,
2013-01-08 05:30:00,61.6,61.3,30.13,NNE,28,0.0,0.0,99,0.00,,,0.00,Wunderground v.1.13,2013-01-08 10:30:00,
2013-01-08 05:40:00,61.8,61.5,30.13,NNE,28,0.0,0.0,99,0.00,,,0.00,Wunderground v.1.13,2013-01-08 10:40:00,
2013-01-08 05:50:00,61.8,61.5,30.13,NNE,28,0.0,0.0,99,0.00,,,0.00,Wunderground v.1.13,2013-01-08 10:50:00,
2013-01-08 06:00:00,61.8,61.5,30.13,NNE,28,0.0,0.0,99,0.00,,,0.00,Wunderground v.1.13,2013-01-08 11:00:00,
2013-01-08 06:10:00,61.8,61.5,30.13,NNE,28,0.0,0.0,99,0.00,,,0.00,Wunderground v.1.13,2013-01-08 11:10:00,
2013-01-08 06:20:00,62.0,61.7,30.13,NNE,28,0.0,0.0,99,0.00,,,0.00,Wunderground v.1.13,2013-01-08 11:20:00,
2013-01-08 06:30:00,62.0,61.7,30.14,NNE,28,0.0,0.0,99,0.00,,,0.00,Wunderground v.1.13,2013-01-08 11:30:00,
2013-01-08 06:40:00,62.0,61.7,30.14,NNE,28,0.0,0.0,99,0.00,,,0.00,Wunderground v.1.13,2013-01-08 11:40:00,
2013-01-08 06:50:00,61.8,61.5,30.15,NNE,28,0.0,0.0,99,0.00,,,0.00,Wunderground v.1.13,2013-01-08 11:50:00,
2013-01-08 07:00:00,61.6,61.3,30.16,NNE,28,0.0,0.0,99,0.00,,,0.00,Wunderground v.1.13,2013-01-08 12:00:00,
2013-01-08 07:10:00,61.3,61.0,30.16,NNE,28,0.0,0.0,99,0.00,,,0.00,Wunderground v.1.13,2013-01-08 12:10:00,
2013-01-08 07:20:00,61.2,60.9,30.17,NNE,28,0.0,0.0,99,0.00,,,0.00,Wunderground v.1.13,2013-01-08 12:20:00,
2013-01-08 07:30:00,61.2,60.9,30.17,NNE,28,0.0,0.0,99,0.00,,,0.00,Wunderground v.1.13,2013-01-08 12:30:00,
2013-01-08 07:40:00,61.2,61.2,30.17,NNE,28,0.0,0.0,100,0.00,,,0.00,Wunderground v.1.13,2013-01-08 12:40:00,
2013-01-08 07:50:00,61.3,61.3,30.17,NNE,28,0.0,0.0,100,0.00,,,0.00,Wunderground v.1.13,2013-01-08 12:50:00,
2013-01-08 08:00:00,61.8,61.8,30.18,NNE,28,0.0,0.0,100,0.00,,,0.00,Wunderground v.1.13,2013-01-08 13:00:00,
2013-01-08 08:10:00,62.3,62.3,30.18,NNE,28,0.0,0.0,100,0.00,,,0.00,Wunderground v.1.13,2013-01-08 13:10:00,
2013-01-08 08:20:00,62.9,62.9,30.19,NNE,28,0.0,0.0,100,0.00,,,0.00,Wunderground v.1.13,2013-01-08 13:20:00,
2013-01-08 08:30:00,63.7,63.7,30.20,SE,134,0.0,0.0,100,0.00,,,0.00,Wunderground v.1.13,2013-01-08 13:30:00,
2013-01-08 08:40:00,64.5,64.2,30.20,ESE,107,0.0,0.0,99,0.00,,,0.00,Wunderground v.1.13,2013-01-08 13:40:00,
2013-01-08 08:50:00,65.5,65.2,30.20,ESE,107,0.0,0.0,99,0.00,,,0.00,Wunderground v.1.13,2013-01-08 13:50:00,
2013-01-08 09:00:00,66.3,65.4,30.20,ESE,107,0.0,0.0,97,0.00,,,0.00,Wunderground v.1.13,2013-01-08 14:00:00,
2013-01-08 09:10:00,66.9,65.7,30.20,ESE,106,0.0,0.0,96,0.00,,,0.00,Wunderground v.1.13,2013-01-08 14:10:00,
2013-01-08 09:20:00,67.8,66.3,30.20,ESE,104,0.0,0.0,95,0.00,,,0.00,Wunderground v.1.13,2013-01-08 14:20:00,
2013-01-08 09:30:00,68.9,66.5,30.21,ENE,68,0.0,0.0,92,0.00,,,0.00,Wunderground v.1.13,2013-01-08 14:30:00,
2013-01-08 09:40:00,69.6,66.9,30.21,East,92,0.0,0.0,91,0.00,,,0.00,Wunderground v.1.13,2013-01-08 14:40:00,
2013-01-08 09:50:00,70.1,66.7,30.21,East,83,1.0,1.0,89,0.00,,,0.00,Wunderground v.1.13,2013-01-08 14:50:00,
2013-01-08 10:00:00,70.8,67.1,30.21,ESE,119,0.0,0.0,88,0.00,,,0.00,Wunderground v.1.13,2013-01-08 15:00:00,
2013-01-08 10:10:00,70.9,67.2,30.21,ESE,113,0.0,0.0,88,0.00,,,0.00,Wunderground v.1.13,2013-01-08 15:10:00,
2013-01-08 10:20:00,-999.9,-99.9,30.21,North,32767,-999.0,0.0,255,-99.99,,,0.00,Wunderground v.1.13,2013-01-08 15:20:00,
2013-01-08 10:30:00,-999.9,-99.9,30.21,North,32767,-999.0,0.0,255,-99.99,,,0.00,Wunderground v.1.13,2013-01-08 15:30:00,
2013-01-08 10:40:00,-999.9,-99.9,30.21,North,32767,-999.0,0.0,255,-99.99,,,0.00,Wunderground v.1.13,2013-01-08 15:40:00,
2013-01-08 10:50:00,-999.9,-99.9,30.20,North,32767,-999.0,0.0,255,-99.99,,,0.00,Wunderground v.1.13,2013-01-08 15:50:00,
2013-01-08 11:00:00,-999.9,-99.9,30.20,North,32767,-999.0,0.0,255,-99.99,,,0.00,Wunderground v.1.13,2013-01-08 16:00:00,
2013-01-08 11:10:00,-999.9,-99.9,30.20,North,32767,-999.0,0.0,255,-99.99,,,0.00,Wunderground v.1.13,2013-01-08 16:10:00,
2013-01-08 11:20:00,-999.9,-99.9,30.19,North,32767,-999.0,0.0,255,-99.99,,,0.00,Wunderground v.1.13,2013-01-08 16:20:00,
2013-01-08 11:30:00,-999.9,-99.9,30.19,North,32767,-999.0,0.0,255,-99.99,,,0.00,Wunderground v.1.13,2013-01-08 16:30:00,
2013-01-08 11:40:00,-999.9,-99.9,30.19,North,32767,-999.0,0.0,255,-99.99,,,0.00,Wunderground v.1.13,2013-01-08 16:40:00,
2013-01-08 11:50:00,-999.9,-99.9,30.18,North,32767,-999.0,0.0,255,-99.99,,,0.00,Wunderground v.1.13,2013-01-08 16:50:00,
2013-01-08 12:00:00,-999.9,-99.9,30.17,North,32767,-999.0,0.0,255,-99.99,,,0.00,Wunderground v.1.13,2013-01-08 17:00:00,
2013-01-08 12:10:00,-999.9,-99.9,30.17,North,32767,-999.0,0.0,255,-99.99,,,0.00,Wunderground v.1.13,2013-01-08 17:10:00,
2013-01-08 12:20:00,-999.9,-99.9,30.17,North,32767,-999.0,0.0,255,-99.99,,,0.00,Wunderground v.1.13,2013-01-08 17:20:00,
2013-01-08 12:30:00,-999.9,-99.9,30.16,North,32767,-999.0,0.0,255,-99.99,,,0.00,Wunderground v.1.13,2013-01-08 17:30:00,
2013-01-08 12:40:00,-999.9,-99.9,30.16,North,32767,-999.0,0.0,255,-99.99,,,0.00,Wunderground v.1.13,2013-01-08 17:40:00,
2013-01-08 12:50:00,-999.9,-99.9,30.15,SE,133,0.0,0.0,255,-99.99,,,0.00,Wunderground v.1.13,2013-01-08 17:50:00,
2013-01-08 13:00:00,-999.9,-99.9,30.14,SSE,150,0.0,0.0,255,0.00,,,0.00,Wunderground v.1.13,2013-01-08 18:00:00,
2013-01-08 13:10:00,-999.9,-99.9,30.14,SSE,155,0.0,0.0,255,0.00,,,0.00,Wunderground v.1.13,2013-01-08 18:10:00,
2013-01-08 13:20:00,79.6,69.0,30.14,East,79,1.0,1.0,70,0.00,,,0.00,Wunderground v.1.13,2013-01-08 18:20:00,
2013-01-08 13:30:00,80.5,69.8,30.13,East,90,0.0,0.0,70,0.00,,,0.00,Wunderground v.1.13,2013-01-08 18:30:00,
2013-01-08 13:40:00,80.7,70.0,30.13,ESE,109,0.0,0.0,70,0.00,,,0.00,Wunderground v.1.13,2013-01-08 18:40:00,
2013-01-08 13:50:00,81.4,68.9,30.13,SE,140,2.0,4.0,66,0.00,,,0.00,Wunderground v.1.13,2013-01-08 18:50:00,
2013-01-08 14:00:00,81.4,68.9,30.13,ESE,107,0.0,0.0,66,0.00,,,0.00,Wunderground v.1.13,2013-01-08 19:00:00,
2013-01-08 14:10:00,81.4,68.5,30.13,East,85,0.0,0.0,65,0.00,,,0.00,Wunderground v.1.13,2013-01-08 19:10:00,
2013-01-08 14:20:00,81.4,68.5,30.13,ESE,117,0.0,0.0,65,0.00,,,0.00,Wunderground v.1.13,2013-01-08 19:20:00,
2013-01-08 14:30:00,-999.9,-99.9,30.12,North,32767,-999.0,0.0,255,-99.99,,,0.00,Wunderground v.1.13,2013-01-08 19:30:00,
2013-01-08 14:40:00,-999.9,-99.9,30.12,NNE,30,0.0,0.0,255,0.00,,,0.00,Wunderground v.1.13,2013-01-08 19:40:00,
2013-01-08 14:50:00,-999.9,-99.9,30.12,North,32767,-999.0,0.0,255,-99.99,,,0.00,Wunderground v.1.13,2013-01-08 19:50:00,
2013-01-08 15:00:00,-999.9,-99.9,30.11,North,32767,-999.0,0.0,255,-99.99,,,0.00,Wunderground v.1.13,2013-01-08 20:00:00,
2013-01-08 15:10:00,-999.9,-99.9,30.11,North,32767,-999.0,0.0,255,-99.99,,,0.00,Wunderground v.1.13,2013-01-08 20:10:00,
2013-01-08 15:20:00,-999.9,-99.9,30.12,North,32767,-999.0,0.0,255,-99.99,,,0.00,Wunderground v.1.13,2013-01-08 20:20:00,
2013-01-08 15:30:00,-999.9,-99.9,30.12,North,32767,-999.0,0.0,255,-99.99,,,0.00,Wunderground v.1.13,2013-01-08 20:30:00,
2013-01-08 15:40:00,-999.9,-99.9,30.12,North,32767,-999.0,0.0,255,-99.99,,,0.00,Wunderground v.1.13,2013-01-08 20:40:00,
2013-01-08 15:50:00,-999.9,-99.9,30.11,North,32767,-999.0,0.0,255,-99.99,,,0.00,Wunderground v.1.13,2013-01-08 20:50:00,
2013-01-08 16:00:00,80.7,-99.9,30.11,NW,323,0.0,0.0,255,0.00,,,0.00,Wunderground v.1.13,2013-01-08 21:00:00,
2013-01-08 16:10:00,80.3,-99.9,30.11,NW,323,0.0,0.0,255,0.00,,,0.00,Wunderground v.1.13,2013-01-08 21:10:00,
2013-01-08 16:20:00,-999.9,-99.9,30.11,North,32767,-999.0,0.0,255,-99.99,,,0.00,Wunderground v.1.13,2013-01-08 21:20:00,
2013-01-08 16:30:00,-999.9,-99.9,30.11,North,32767,-999.0,0.0,255,-99.99,,,0.00,Wunderground v.1.13,2013-01-08 21:30:00,
2013-01-08 16:40:00,-999.9,-99.9,30.11,North,32767,-999.0,0.0,255,-99.99,,,0.00,Wunderground v.1.13,2013-01-08 21:40:00,
2013-01-08 16:50:00,-999.9,-99.9,30.11,North,32767,-999.0,0.0,255,-99.99,,,0.00,Wunderground v.1.13,2013-01-08 21:50:00,
2013-01-08 17:00:00,-999.9,-99.9,30.12,North,32767,-999.0,0.0,255,-99.99,,,0.00,Wunderground v.1.13,2013-01-08 22:00:00,
2013-01-08 17:10:00,76.5,68.0,30.12,NNW,337,0.0,0.0,75,0.00,,,0.00,Wunderground v.1.13,2013-01-08 22:10:00,
2013-01-08 17:20:00,76.0,67.9,30.12,NNW,337,0.0,0.0,76,0.00,,,0.00,Wunderground v.1.13,2013-01-08 22:20:00,
2013-01-08 17:30:00,75.4,67.3,30.12,NNW,337,0.0,0.0,76,0.00,,,0.00,Wunderground v.1.13,2013-01-08 22:30:00,
2013-01-08 17:40:00,74.9,67.6,30.12,NNW,337,0.0,0.0,78,0.00,,,0.00,Wunderground v.1.13,2013-01-08 22:40:00,
2013-01-08 17:50:00,74.9,67.6,30.12,NNW,337,0.0,0.0,78,0.00,,,0.00,Wunderground v.1.13,2013-01-08 22:50:00,
2013-01-08 18:00:00,-999.9,-99.9,30.12,North,32767,-999.0,0.0,255,-99.99,,,0.00,Wunderground v.1.13,2013-01-08 23:00:00,
2013-01-08 18:10:00,-999.9,-99.9,30.12,NNW,337,0.0,0.0,255,-99.99,,,0.00,Wunderground v.1.13,2013-01-08 23:10:00,
2013-01-08 18:20:00,72.8,67.7,30.12,NNW,337,0.0,0.0,84,0.00,,,0.00,Wunderground v.1.13,2013-01-08 23:20:00,
2013-01-08 18:30:00,72.3,67.2,30.12,NNW,337,0.0,0.0,84,0.00,,,0.00,Wunderground v.1.13,2013-01-08 23:30:00,
2013-01-08 18:40:00,71.6,66.8,30.12,NNW,337,0.0,0.0,85,0.00,,,0.00,Wunderground v.1.13,2013-01-08 23:40:00,
2013-01-08 18:50:00,71.1,67.0,30.13,NNW,337,0.0,0.0,87,0.00,,,0.00,Wunderground v.1.13,2013-01-08 23:50:00,
2013-01-08 19:00:00,70.6,66.9,30.13,NNW,337,0.0,0.0,88,0.00,,,0.00,Wunderground v.1.13,2013-01-09 00:00:00,
2013-01-08 19:10:00,70.3,66.9,30.13,NNW,337,0.0,0.0,89,0.00,,,0.00,Wunderground v.1.13,2013-01-09 00:10:00,
2013-01-08 19:20:00,69.9,66.8,30.13,NNW,337,0.0,0.0,90,0.00,,,0.00,Wunderground v.1.13,2013-01-09 00:20:00,
2013-01-08 19:30:00,69.8,67.1,30.13,NNW,337,0.0,0.0,91,0.00,,,0.00,Wunderground v.1.13,2013-01-09 00:30:00,
2013-01-08 19:40:00,69.4,66.7,30.13,NNW,337,0.0,0.0,91,0.00,,,0.00,Wunderground v.1.13,2013-01-09 00:40:00,
2013-01-08 19:50:00,69.3,66.6,30.14,NNW,337,0.0,0.0,91,0.00,,,0.00,Wunderground v.1.13,2013-01-09 00:50:00,
2013-01-08 20:00:00,69.3,66.9,30.13,NNW,337,0.0,0.0,92,0.00,,,0.00,Wunderground v.1.13,2013-01-09 01:00:00,
2013-01-08 20:10:00,69.3,66.9,30.13,NNW,337,0.0,0.0,92,0.00,,,0.00,Wunderground v.1.13,2013-01-09 01:10:00,
2013-01-08 20:20:00,69.9,66.8,30.13,NNW,337,0.0,0.0,90,0.00,,,0.00,Wunderground v.1.13,2013-01-09 01:20:00,
2013-01-08 20:30:00,71.5,67.8,30.14,NNW,337,0.0,0.0,88,0.00,,,0.00,Wunderground v.1.13,2013-01-09 01:30:00,
2013-01-08 20:40:00,72.3,67.2,30.14,NNW,339,0.0,0.0,84,0.00,,,0.00,Wunderground v.1.13,2013-01-09 01:40:00,
2013-01-08 20:50:00,72.7,67.6,30.14,NNW,339,0.0,0.0,84,0.00,,,0.00,Wunderground v.1.13,2013-01-09 01:50:00,
2013-01-08 21:00:00,72.3,67.2,30.14,NNW,339,0.0,0.0,84,0.00,,,0.00,Wunderground v.1.13,2013-01-09 02:00:00,
2013-01-08 21:10:00,72.0,67.2,30.14,NNW,339,0.0,0.0,85,0.00,,,0.00,Wunderground v.1.13,2013-01-09 02:10:00,
2013-01-08 21:20:00,72.0,67.2,30.14,NNW,339,0.0,0.0,85,0.00,,,0.00,Wunderground v.1.13,2013-01-09 02:20:00,
2013-01-08 21:30:00,72.0,67.2,30.15,NNW,339,0.0,0.0,85,0.00,,,0.00,Wunderground v.1.13,2013-01-09 02:30:00,
2013-01-08 21:40:00,71.8,67.0,30.15,NNW,339,0.0,0.0,85,0.00,,,0.00,Wunderground v.1.13,2013-01-09 02:40:00,
2013-01-08 21:50:00,71.6,67.2,30.15,NNW,339,0.0,0.0,86,0.00,,,0.00,Wunderground v.1.13,2013-01-09 02:50:00,
2013-01-08 22:00:00,71.5,67.1,30.16,NNW,339,0.0,0.0,86,0.00,,,0.00,Wunderground v.1.13,2013-01-09 03:00:00,
2013-01-08 22:10:00,71.3,67.2,30.16,NNW,339,0.0,0.0,87,0.00,,,0.00,Wunderground v.1.13,2013-01-09 03:10:00,
2013-01-08 22:20:00,70.9,66.8,30.16,NNW,339,0.0,0.0,87,0.00,,,0.00,Wunderground v.1.13,2013-01-09 03:20:00,
2013-01-08 22:30:00,70.8,67.1,30.16,NNW,339,0.0,0.0,88,0.00,,,0.00,Wunderground v.1.13,2013-01-09 03:30:00,
2013-01-08 22:40:00,70.8,67.1,30.16,NNW,339,0.0,0.0,88,0.00,,,0.00,Wunderground v.1.13,2013-01-09 03:40:00,
2013-01-08 22:50:00,70.8,67.1,30.16,NNE,24,0.0,0.0,88,0.00,,,0.00,Wunderground v.1.13,2013-01-09 03:50:00,
2013-01-08 23:00:00,70.8,67.4,30.17,East,89,0.0,0.0,89,0.00,,,0.00,Wunderground v.1.13,2013-01-09 04:00:00,
2013-01-08 23:10:00,70.8,67.4,30.17,East,89,0.0,0.0,89,0.00,,,0.00,Wunderground v.1.13,2013-01-09 04:10:00,
2013-01-08 23:20:00,70.8,67.4,30.17,East,89,0.0,0.0,89,0.00,,,0.00,Wunderground v.1.13,2013-01-09 04:20:00,
2013-01-08 23:30:00,70.8,67.7,30.17,East,83,0.0,0.0,90,0.00,,,0.00,Wunderground v.1.13,2013-01-09 04:30:00,
2013-01-08 23:40:00,70.6,67.5,30.17,East,86,0.0,0.0,90,0.00,,,0.00,Wunderground v.1.13,2013-01-09 04:40:00,
2013-01-08 23:50:00,70.4,67.6,30.17,East,85,0.0,0.0,91,0.00,,,0.00,Wunderground v.1.13,2013-01-09 04:50:00,